CDT,Max TemperatureF,Mean TemperatureF,Min TemperatureF,Max Dew PointF,MeanDew PointF,Min DewpointF,Max Humidity, Mean Humidity, Min Humidity, Max Sea Level PressureIn, Mean Sea Level PressureIn, Min Sea Level PressureIn, Max VisibilityMiles, Mean VisibilityMiles, Min VisibilityMiles, Max Wind SpeedMPH, Mean Wind SpeedMPH, Max Gust SpeedMPH,PrecipitationIn, CloudCover, Events, WindDirDegrees
2013-10-1,82,70,57,61,59,55,100,73,42,29.98,29.91,29.84,10,10,7,13,8,17,0.00,0,,211
2013-10-2,84,72,59,66,62,57,100,77,45,30.04,29.96,29.89,10,9,2,15,6,21,0.00,1,,145
2013-10-3,80,72,64,68,65,63,100,83,54,29.89,29.83,29.78,10,8,2,15,8,24,0.62,4,Rain,168
2013-10-4,82,73,64,72,67,63,100,84,65,29.89,29.82,29.76,10,9,2,20,10,32,0.22,6,Rain,148
2013-10-5,69,58,46,66,43,34,94,65,42,29.95,29.88,29.81,10,10,5,17,9,26,0.03,5,Rain,246
2013-10-6,50,46,42,48,42,34,100,85,62,29.91,29.80,29.75,10,8,1,16,10,23,0.21,7,Rain,270
2013-10-7,71,56,42,46,44,39,93,67,33,30.07,30.02,29.91,10,10,10,15,9,23,0.00,1,,252
2013-10-8,75,60,46,48,46,43,87,60,33,30.10,30.06,30.01,10,10,10,22,11,34,0.00,0,,180
2013-10-9,73,60,48,50,48,45,94,67,36,30.13,30.08,30.05,10,10,9,16,9,21,0.00,0,,158
2013-10-10,77,62,46,54,49,43,93,67,34,30.09,30.02,29.91,10,10,10,16,8,22,0.00,1,,157
2013-10-11,75,65,55,63,58,52,94,79,61,29.92,29.85,29.77,10,10,4,22,11,32,0.06,3,Rain,163
2013-10-12,66,56,46,59,42,34,94,61,30,30.26,30.07,29.85,10,10,10,17,9,25,0.00,2,,288
2013-10-13,64,52,39,39,35,34,81,57,32,30.44,30.36,30.27,10,10,9,10,5,14,0.00,0,,25
2013-10-14,66,54,42,48,38,34,76,54,35,30.36,30.15,29.86,10,10,9,22,11,33,0.00,2,,129
2013-10-15,60,54,48,57,45,39,94,74,55,29.97,29.89,29.80,10,10,3,21,16,30,0.05,7,Rain,249
2013-10-16,50,46,41,43,41,39,93,79,71,30.03,29.99,29.97,10,10,10,14,11,21,0.00,8,,274
2013-10-17,62,52,41,43,38,34,93,67,34,29.97,29.90,29.84,10,10,8,17,7,25,0.00,3,,246
2013-10-18,48,42,35,43,34,30,93,70,50,30.07,30.02,29.95,10,10,10,20,11,26,0.00,3,,286
2013-10-19,59,46,33,36,32,28,93,66,34,29.99,29.89,29.81,10,10,6,20,9,28,0.00,4,,245
2013-10-20,62,50,37,43,39,30,93,67,45,29.92,29.80,29.74,10,10,9,17,7,23,0.00,5,,225
2013-10-21,50,42,33,39,30,25,93,64,37,30.08,30.02,29.93,10,10,9,16,10,23,0.00,5,,294
2013-10-22,44,38,33,39,36,32,93,83,70,30.07,29.94,29.83,10,10,3,15,6,20,0.01,7,Rain,342
2013-10-23,42,36,30,37,32,27,100,84,53,30.15,30.09,30.06,10,8,3,13,7,16,0.02,6,Rain,280
2013-10-24,44,37,30,36,28,25,93,72,49,30.38,30.29,30.15,10,10,9,17,9,21,0.00,4,,299
2013-10-25,55,42,28,28,26,23,80,56,33,30.41,30.29,30.07,10,10,5,24,10,31,0.00,1,,226
2013-10-26,51,42,33,34,28,23,76,54,35,30.16,30.09,29.97,10,10,6,21,12,28,0.00,1,,290
2013-10-27,60,44,28,32,29,25,86,59,31,30.13,30.01,29.89,10,10,9,18,8,24,0.00,0,,213
2013-10-28,59,46,33,39,33,28,87,62,39,30.25,30.15,29.98,10,10,8,14,8,20,0.00,2,,63
2013-10-29,57,49,41,52,45,36,100,82,67,30.26,30.09,30.01,10,7,1,15,11,20,0.00,7,,110
2013-10-30,64,58,51,63,57,52,100,98,88,30.01,29.86,29.66,10,4,0,18,10,26,0.77,8,Fog-Rain,133
2013-10-31,64,53,42,63,46,41,100,94,87,29.66,29.56,29.47,10,6,1,15,10,22,0.11,5,Rain,277